Tracking 18984 objects as of 24-Feb-2018
HD Live streaming from Space Station
objects crossing your sky now

FENGYUN 1C DEB

Track FENGYUN 1C DEB now!
10-day predictions


NORAD ID: 31813
Int'l Code: 1999-025CHB
Perigee: 651.6 km
Apogee: 873.1 km
Inclination: 99.4 °
Period: 99.9 minutes
Semi major axis: 7133 km
RCS: 0.0151 m2 (small)
Launch date: May 10, 1999
Source: People's Republic of China (PRC)
Launch site: Taiyaun Space Center, China (TSC)

Note: This is SATELLITE DEBRIS
aabbcc
Your satellite tracking list
Your tracking list is empty




NASA's NSSDC Master Catalog

Two Line Element Set (TLE):
1 31813U 99025CHB 18054.09153368 +.00000149 +00000-0 +56114-4 0  9999
2 31813 099.4188 145.7074 0155219 031.3351 329.6971 14.40988539561510
Source of the keplerian elements: AFSPC